Flag for Russia Weather past 2 weeks in Yuzhno-Sakhalinsk, Russia

Now
25 °F

Blizzard. Ice fog.


Feels Like: 10 °F
Forecast: 11 / 30 °F
Wind: 22 mph from North

Location: Yuzhno Airport-Sakhalinsk

Current Time: Mar 5, 2015 at 3:34:11 AM

Latest Report: Mar 5, 2015 at 3:00 AM


Visibility: 0 mi

Pressure: 29.68 "Hg

Humidity: 100%

Dew point: 25 °F

Location of Yuzhno-SakhalinskLocation

Historic Weather in Yuzhno-Sakhalinsk — Graph

°F

Yuzhno-Sakhalinsk temperature yesterday

Maximum temperature yesterday: 32 °F (at 1:00 PM)
Minimum temperature yesterday: 12 °F (at 2:00 AM)
Average temperature yesterday: 25 °F

Past Weeks' High & Low Weather Summary

 TemperatureHumidityPressure
High36 °F (Feb 23, 1:00 PM)100% (Feb 18, 2:00 AM)30.30 "Hg (Feb 18, 2:00 AM)
Low-11 °F (Feb 26, 4:00 AM)47% (Feb 20, 2:00 PM)29.33 "Hg (Feb 24, 5:00 AM)
Average25 °F83%29.95 "Hg
* Reported Feb 18 2:00 AM — Mar 5 2:00 AM, Yuzhno-Sakhalinsk, Weather by CustomWeather, © 2015

Note: Actual official high and low records may vary slightly from our data, if they occured in-between our weather recording intervals... More about our weather records

Advertising

Yuzhno-Sakhalinsk weather history for previous 24 hours

 ConditionsComfort  
Time TempWeatherWind HumidityBarometerVisibility
2:00 AM
Thu, Mar 5
27 °FSnow flurries. Passing clouds.15 mph93%29.68 "Hg4 mi
1:00 AM27 °FSnow flurries. Passing clouds.10 mph86%29.68 "Hg5 mi
12:00 AM28 °FSnow flurries. Passing clouds.10 mph80%29.71 "Hg5 mi
11:30 PM
Wed, Mar 4
28 °FSnow flurries. Partly cloudy.13 mph80%29.71 "Hg4 mi
11:00 PM28 °FSnow flurries. Partly cloudy.17 mph86%29.74 "Hg4 mi
10:30 PM30 °FSnow showers. Passing clouds.20 mph75%29.74 "Hg2 mi
10:00 PM30 °FSnow flurries. Partly cloudy.17 mph75%29.77 "Hg4 mi
9:30 PM30 °FSnow flurries. Partly cloudy.17 mph75%29.77 "Hg3 mi
9:00 PM30 °FSnow flurries. Passing clouds.22 mph75%29.80 "Hg3 mi
8:30 PM30 °FSnow flurries. Passing clouds.17 mph75%29.80 "Hg5 mi
8:00 PM30 °FSnow flurries. Passing clouds.17 mph75%29.80 "Hg5 mi
7:30 PM30 °FSnow flurries. Passing clouds.17 mph80%29.83 "Hg4 mi
7:00 PM30 °FSnow flurries. Passing clouds.22 mph80%29.83 "Hg5 mi
6:30 PM30 °FSnow flurries. Passing clouds.15 mph80%29.86 "Hg5 mi
6:00 PM30 °FSnow flurries. Partly sunny.20 mph75%29.86 "HgN/A
5:30 PM30 °FPartly sunny.10 mph75%29.89 "HgN/A
5:00 PM30 °FScattered clouds.10 mph75%29.89 "HgN/A
4:30 PM30 °FScattered clouds.10 mph75%29.89 "HgN/A
4:00 PM30 °FScattered clouds.15 mph75%29.92 "HgN/A
3:30 PM30 °FScattered clouds.15 mph75%29.92 "HgN/A
3:00 PM32 °FScattered clouds.13 mph69%29.95 "HgN/A
2:30 PM32 °FScattered clouds.10 mph69%29.95 "HgN/A
2:00 PM32 °FScattered clouds.10 mph64%29.95 "HgN/A
1:30 PM32 °FScattered clouds.8 mph69%29.98 "HgN/A
1:00 PM32 °FScattered clouds.10 mph69%30.01 "HgN/A
12:30 PM30 °FScattered clouds.3 mph69%30.01 "HgN/A
12:00 PM28 °FScattered clouds.6 mph74%30.04 "HgN/A
11:30 AM25 °FScattered clouds.6 mph80%30.04 "HgN/A
11:00 AM25 °FScattered clouds.8 mph74%30.07 "HgN/A
10:30 AM23 °FScattered clouds.10 mph80%30.07 "HgN/A
10:00 AM21 °FScattered clouds.8 mph80%30.07 "HgN/A
9:30 AM19 °FPartly sunny.6 mph86%30.09 "HgN/A
9:00 AM19 °FSnow flurries. Partly sunny.8 mph86%30.09 "HgN/A
8:30 AM18 °FSnow flurries. Partly sunny.8 mph93%30.09 "Hg5 mi
8:00 AM18 °FPartly sunny.8 mph86%30.09 "Hg5 mi
7:30 AM16 °FPartly sunny.8 mph93%30.09 "Hg5 mi
7:00 AM16 °FSnow flurries. Passing clouds.6 mph86%30.09 "Hg5 mi
6:30 AM14 °FSnow flurries. Passing clouds.6 mph92%30.09 "HgN/A
5:30 AM16 °FPassing clouds.No wind86%30.09 "HgN/A
5:00 AM16 °FPassing clouds.3 mph86%30.09 "HgN/A
4:00 AM14 °FPassing clouds.6 mph92%30.09 "Hg5 mi
3:00 AM14 °FPassing clouds.3 mph92%30.09 "Hg5 mi
Weather by CustomWeather, © 2015

See weather overviewHow to use our weather pages